Year,Month,Day,Hour,Minute,Value (Times are PST for windgust in km/hr)
2002,05,03,00,00,11.20
2002,05,03,00,01,11.20
2002,05,03,00,02,11.20
2002,05,03,00,03,11.20
2002,05,03,00,04,9.70
2002,05,03,00,05,9.70
2002,05,03,00,06,11.20
2002,05,03,00,07,9.70
2002,05,03,00,08,9.70
2002,05,03,00,09,9.70
2002,05,03,00,10,11.20
2002,05,03,00,11,7.90
2002,05,03,00,12,7.90
2002,05,03,00,13,7.90
2002,05,03,00,14,11.20
2002,05,03,00,15,11.20
2002,05,03,00,16,9.70
2002,05,03,00,17,7.90
2002,05,03,00,18,4.70
2002,05,03,00,19,7.90
2002,05,03,00,20,11.20
2002,05,03,00,21,9.70
2002,05,03,00,22,3.20
2002,05,03,00,23,9.70
2002,05,03,00,24,4.70
2002,05,03,00,25,7.90
2002,05,03,00,26,9.70
2002,05,03,00,27,9.70
2002,05,03,00,28,7.90
2002,05,03,00,29,4.70
2002,05,03,00,30,9.70
2002,05,03,00,31,7.90
2002,05,03,00,32,4.70
2002,05,03,00,33,7.90
2002,05,03,00,34,7.90
2002,05,03,00,35,7.90
2002,05,03,00,36,7.90
2002,05,03,00,37,9.70
2002,05,03,00,38,4.70
2002,05,03,00,39,7.90
2002,05,03,00,40,4.70
2002,05,03,00,41,7.90
2002,05,03,00,42,4.70
2002,05,03,00,43,3.20
2002,05,03,00,44,7.90
2002,05,03,00,45,4.70
2002,05,03,00,46,4.70
2002,05,03,00,47,4.70
2002,05,03,00,48,4.70
2002,05,03,00,49,7.90
2002,05,03,00,50,4.70
2002,05,03,00,51,3.20
2002,05,03,00,52,3.20
2002,05,03,00,53,3.20
2002,05,03,00,54,1.40
2002,05,03,00,55,3.20
2002,05,03,00,56,3.20
2002,05,03,00,57,1.40
2002,05,03,00,58,1.40
2002,05,03,00,59,3.20
2002,05,03,01,00,4.70
2002,05,03,01,01,3.20
2002,05,03,01,02,3.20
2002,05,03,01,03,3.20
2002,05,03,01,04,3.20
2002,05,03,01,05,3.20
2002,05,03,01,06,4.70
2002,05,03,01,07,3.20
2002,05,03,01,08,4.70
2002,05,03,01,09,3.20
2002,05,03,01,10,3.20
2002,05,03,01,11,3.20
2002,05,03,01,12,3.20
2002,05,03,01,13,1.40
2002,05,03,01,14,0.00
2002,05,03,01,15,0.00
2002,05,03,01,16,0.00
2002,05,03,01,17,0.00
2002,05,03,01,18,0.00
2002,05,03,01,19,0.00
2002,05,03,01,20,1.40
2002,05,03,01,21,3.20
2002,05,03,01,22,3.20
2002,05,03,01,23,3.20
2002,05,03,01,24,3.20
2002,05,03,01,25,3.20
2002,05,03,01,26,3.20
2002,05,03,01,27,3.20
2002,05,03,01,28,1.40
2002,05,03,01,29,1.40
2002,05,03,01,30,1.40
2002,05,03,01,31,1.40
2002,05,03,01,32,0.00
2002,05,03,01,33,0.00
2002,05,03,01,34,1.40
2002,05,03,01,35,0.00
2002,05,03,01,36,1.40
2002,05,03,01,37,0.00
2002,05,03,01,38,1.40
2002,05,03,01,39,0.00
2002,05,03,01,40,0.00
2002,05,03,01,41,0.00
2002,05,03,01,42,0.00
2002,05,03,01,43,0.00
2002,05,03,01,44,0.00
2002,05,03,01,45,0.00
2002,05,03,01,46,1.40
2002,05,03,01,47,3.20
2002,05,03,01,48,1.40
2002,05,03,01,49,3.20
2002,05,03,01,50,3.20
2002,05,03,01,51,3.20
2002,05,03,01,52,4.70
2002,05,03,01,53,3.20
2002,05,03,01,54,3.20
2002,05,03,01,55,1.40
2002,05,03,01,56,3.20
2002,05,03,01,57,1.40
2002,05,03,01,58,0.00
2002,05,03,01,59,1.40
2002,05,03,02,00,1.40
2002,05,03,02,01,1.40
2002,05,03,02,02,1.40
2002,05,03,02,03,1.40
2002,05,03,02,04,0.00
2002,05,03,02,05,0.00
2002,05,03,02,06,0.00
2002,05,03,02,07,0.00
2002,05,03,02,08,0.00
2002,05,03,02,09,1.40
2002,05,03,02,10,0.00
2002,05,03,02,11,0.00
2002,05,03,02,12,0.00
2002,05,03,02,13,0.00
2002,05,03,02,14,0.00
2002,05,03,02,15,0.00
2002,05,03,02,16,0.00
2002,05,03,02,17,0.00
2002,05,03,02,18,0.00
2002,05,03,02,19,1.40
2002,05,03,02,20,1.40
2002,05,03,02,21,3.20
2002,05,03,02,22,3.20
2002,05,03,02,23,1.40
2002,05,03,02,24,1.40
2002,05,03,02,25,1.40
2002,05,03,02,26,0.00
2002,05,03,02,27,0.00
2002,05,03,02,28,0.00
2002,05,03,02,29,0.00
2002,05,03,02,30,0.00
2002,05,03,02,31,0.00
2002,05,03,02,32,0.00
2002,05,03,02,33,0.00
2002,05,03,02,34,0.00
2002,05,03,02,35,0.00
2002,05,03,02,36,0.00
2002,05,03,02,37,0.00
2002,05,03,02,38,0.00
2002,05,03,02,39,0.00
2002,05,03,02,40,0.00
2002,05,03,02,41,0.00
2002,05,03,02,42,0.00
2002,05,03,02,43,1.40
2002,05,03,02,44,0.00
2002,05,03,02,45,0.00
2002,05,03,02,46,0.00
2002,05,03,02,47,0.00
2002,05,03,02,48,0.00
2002,05,03,02,49,0.00
2002,05,03,02,50,1.40
2002,05,03,02,51,1.40
2002,05,03,02,52,3.20
2002,05,03,02,53,3.20
2002,05,03,02,54,3.20
2002,05,03,02,55,4.70
2002,05,03,02,56,3.20
2002,05,03,02,57,4.70
2002,05,03,02,58,4.70
2002,05,03,02,59,1.40
2002,05,03,03,00,3.20
2002,05,03,03,01,1.40
2002,05,03,03,02,1.40
2002,05,03,03,03,3.20
2002,05,03,03,04,7.90
2002,05,03,03,05,4.70
2002,05,03,03,06,3.20
2002,05,03,03,07,3.20
2002,05,03,03,08,1.40
2002,05,03,03,09,1.40
2002,05,03,03,10,3.20
2002,05,03,03,11,1.40
2002,05,03,03,12,0.00
2002,05,03,03,13,1.40
2002,05,03,03,14,0.00
2002,05,03,03,15,0.00
2002,05,03,03,16,0.00
2002,05,03,03,17,0.00
2002,05,03,03,18,1.40
2002,05,03,03,19,0.00
2002,05,03,03,20,0.00
2002,05,03,03,21,0.00
2002,05,03,03,22,0.00
2002,05,03,03,23,0.00
2002,05,03,03,24,0.00
2002,05,03,03,25,0.00
2002,05,03,03,26,0.00
2002,05,03,03,27,0.00
2002,05,03,03,28,0.00
2002,05,03,03,29,0.00
2002,05,03,03,30,1.40
2002,05,03,03,31,3.20
2002,05,03,03,32,1.40
2002,05,03,03,33,0.00
2002,05,03,03,34,0.00
2002,05,03,03,35,0.00
2002,05,03,03,36,0.00
2002,05,03,03,37,0.00
2002,05,03,03,38,0.00
2002,05,03,03,39,0.00
2002,05,03,03,40,0.00
2002,05,03,03,41,0.00
2002,05,03,03,42,0.00
2002,05,03,03,43,0.00
2002,05,03,03,44,0.00
2002,05,03,03,45,0.00
2002,05,03,03,46,0.00
2002,05,03,03,47,0.00
2002,05,03,03,48,0.00
2002,05,03,03,49,0.00
2002,05,03,03,50,0.00
2002,05,03,03,51,0.00
2002,05,03,03,52,0.00
2002,05,03,03,53,0.00
2002,05,03,03,54,0.00
2002,05,03,03,55,0.00
2002,05,03,03,56,0.00
2002,05,03,03,57,0.00
2002,05,03,03,58,0.00
2002,05,03,03,59,0.00
2002,05,03,04,00,0.00
2002,05,03,04,01,0.00
2002,05,03,04,02,0.00
2002,05,03,04,03,0.00
2002,05,03,04,04,0.00
2002,05,03,04,05,0.00
2002,05,03,04,06,0.00
2002,05,03,04,07,0.00
2002,05,03,04,08,0.00
2002,05,03,04,09,0.00
2002,05,03,04,10,0.00
2002,05,03,04,11,0.00
2002,05,03,04,12,0.00
2002,05,03,04,13,0.00
2002,05,03,04,14,0.00
2002,05,03,04,15,0.00
2002,05,03,04,16,0.00
2002,05,03,04,17,0.00
2002,05,03,04,18,0.00
2002,05,03,04,19,0.00
2002,05,03,04,20,1.40
2002,05,03,04,21,1.40
2002,05,03,04,22,0.00
2002,05,03,04,23,0.00
2002,05,03,04,24,3.20
2002,05,03,04,25,3.20
2002,05,03,04,26,1.40
2002,05,03,04,27,3.20
2002,05,03,04,28,3.20
2002,05,03,04,29,3.20
2002,05,03,04,30,1.40
2002,05,03,04,31,0.00
2002,05,03,04,32,0.00
2002,05,03,04,33,0.00
2002,05,03,04,34,0.00
2002,05,03,04,35,0.00
2002,05,03,04,36,0.00
2002,05,03,04,37,0.00
2002,05,03,04,38,0.00
2002,05,03,04,39,0.00
2002,05,03,04,40,0.00
2002,05,03,04,41,1.40
2002,05,03,04,42,1.40
2002,05,03,04,43,0.00
2002,05,03,04,44,0.00
2002,05,03,04,45,0.00
2002,05,03,04,46,0.00
2002,05,03,04,47,0.00
2002,05,03,04,48,0.00
2002,05,03,04,49,0.00
2002,05,03,04,50,0.00
2002,05,03,04,51,0.00
2002,05,03,04,52,0.00
2002,05,03,04,53,0.00
2002,05,03,04,54,0.00
2002,05,03,04,55,0.00
2002,05,03,04,56,0.00
2002,05,03,04,57,0.00
2002,05,03,04,58,0.00
2002,05,03,04,59,0.00
2002,05,03,05,00,0.00
2002,05,03,05,01,1.40
2002,05,03,05,02,1.40
2002,05,03,05,03,0.00
2002,05,03,05,04,0.00
2002,05,03,05,05,0.00
2002,05,03,05,06,0.00
2002,05,03,05,07,0.00
2002,05,03,05,08,0.00
2002,05,03,05,09,0.00
2002,05,03,05,10,0.00
2002,05,03,05,11,0.00
2002,05,03,05,12,0.00
2002,05,03,05,13,0.00
2002,05,03,05,14,1.40
2002,05,03,05,15,3.20
2002,05,03,05,16,1.40
2002,05,03,05,17,1.40
2002,05,03,05,18,0.00
2002,05,03,05,19,0.00
2002,05,03,05,20,0.00
2002,05,03,05,21,1.40
2002,05,03,05,22,0.00
2002,05,03,05,23,0.00
2002,05,03,05,24,0.00
2002,05,03,05,25,0.00
2002,05,03,05,26,0.00
2002,05,03,05,27,0.00
2002,05,03,05,28,0.00
2002,05,03,05,29,1.40
2002,05,03,05,30,1.40
2002,05,03,05,31,1.40
2002,05,03,05,32,0.00
2002,05,03,05,33,0.00
2002,05,03,05,34,0.00
2002,05,03,05,35,0.00
2002,05,03,05,36,0.00
2002,05,03,05,37,0.00
2002,05,03,05,38,0.00
2002,05,03,05,39,0.00
2002,05,03,05,40,0.00
2002,05,03,05,41,0.00
2002,05,03,05,42,0.00
2002,05,03,05,43,0.00
2002,05,03,05,44,0.00
2002,05,03,05,45,0.00
2002,05,03,05,46,0.00
2002,05,03,05,47,1.40
2002,05,03,05,48,3.20
2002,05,03,05,49,3.20
2002,05,03,05,50,3.20
2002,05,03,05,51,3.20
2002,05,03,05,52,1.40
2002,05,03,05,53,3.20
2002,05,03,05,54,3.20
2002,05,03,05,55,4.70
2002,05,03,05,56,3.20
2002,05,03,05,57,3.20
2002,05,03,05,58,3.20
2002,05,03,05,59,3.20
2002,05,03,06,00,3.20
2002,05,03,06,01,1.40
2002,05,03,06,02,3.20
2002,05,03,06,03,0.00
2002,05,03,06,04,0.00
2002,05,03,06,05,0.00
2002,05,03,06,06,0.00
2002,05,03,06,07,1.40
2002,05,03,06,08,1.40
2002,05,03,06,09,1.40
2002,05,03,06,10,1.40
2002,05,03,06,11,0.00
2002,05,03,06,12,0.00
2002,05,03,06,13,0.00
2002,05,03,06,14,0.00
2002,05,03,06,15,1.40
2002,05,03,06,16,1.40
2002,05,03,06,17,1.40
2002,05,03,06,18,0.00
2002,05,03,06,19,0.00
2002,05,03,06,20,1.40
2002,05,03,06,21,1.40
2002,05,03,06,22,3.20
2002,05,03,06,23,1.40
2002,05,03,06,24,1.40
2002,05,03,06,25,1.40
2002,05,03,06,26,1.40
2002,05,03,06,27,1.40
2002,05,03,06,28,0.00
2002,05,03,06,29,0.00
2002,05,03,06,30,0.00
2002,05,03,06,31,0.00
2002,05,03,06,32,0.00
2002,05,03,06,33,0.00
2002,05,03,06,34,0.00
2002,05,03,06,35,1.40
2002,05,03,06,36,1.40
2002,05,03,06,37,3.20
2002,05,03,06,38,1.40
2002,05,03,06,39,1.40
2002,05,03,06,40,0.00
2002,05,03,06,41,0.00
2002,05,03,06,42,0.00
2002,05,03,06,43,0.00
2002,05,03,06,44,0.00
2002,05,03,06,45,0.00
2002,05,03,06,46,0.00
2002,05,03,06,47,0.00
2002,05,03,06,48,0.00
2002,05,03,06,49,0.00
2002,05,03,06,50,0.00
2002,05,03,06,51,0.00
2002,05,03,06,52,0.00
2002,05,03,06,53,0.00
2002,05,03,06,54,0.00
2002,05,03,06,55,1.40
2002,05,03,06,56,0.00
2002,05,03,06,57,0.00
2002,05,03,06,58,0.00
2002,05,03,06,59,0.00
2002,05,03,07,00,1.40
2002,05,03,07,01,3.20
2002,05,03,07,02,1.40
2002,05,03,07,03,1.40
2002,05,03,07,04,1.40
2002,05,03,07,05,1.40
2002,05,03,07,06,1.40
2002,05,03,07,07,1.40
2002,05,03,07,08,3.20
2002,05,03,07,09,3.20
2002,05,03,07,10,4.70
2002,05,03,07,11,9.70
2002,05,03,07,12,13.00
2002,05,03,07,13,9.70
2002,05,03,07,14,4.70
2002,05,03,07,15,7.90
2002,05,03,07,16,7.90
2002,05,03,07,17,9.70
2002,05,03,07,18,11.20
2002,05,03,07,19,13.00
2002,05,03,07,20,11.20
2002,05,03,07,21,13.00
2002,05,03,07,22,7.90
2002,05,03,07,23,11.20
2002,05,03,07,24,13.00
2002,05,03,07,25,11.20
2002,05,03,07,26,13.00
2002,05,03,07,27,9.70
2002,05,03,07,28,9.70
2002,05,03,07,29,11.20
2002,05,03,07,30,7.90
2002,05,03,07,31,4.70
2002,05,03,07,32,4.70
2002,05,03,07,33,9.70
2002,05,03,07,34,9.70
2002,05,03,07,35,11.20
2002,05,03,07,36,11.20
2002,05,03,07,37,7.90
2002,05,03,07,38,4.70
2002,05,03,07,39,4.70
2002,05,03,07,40,4.70
2002,05,03,07,41,9.70
2002,05,03,07,42,7.90
2002,05,03,07,43,4.70
2002,05,03,07,44,11.20
2002,05,03,07,45,13.00
2002,05,03,07,46,13.00
2002,05,03,07,47,11.20
2002,05,03,07,48,7.90
2002,05,03,07,49,17.60
2002,05,03,07,50,11.20
2002,05,03,07,51,11.20
2002,05,03,07,52,9.70
2002,05,03,07,53,9.70
2002,05,03,07,54,13.00
2002,05,03,07,55,16.20
2002,05,03,07,56,11.20
2002,05,03,07,57,16.20
2002,05,03,07,58,7.90
2002,05,03,07,59,9.70
2002,05,03,08,00,7.90
2002,05,03,08,01,7.90
2002,05,03,08,02,11.20
2002,05,03,08,03,13.00
2002,05,03,08,04,9.70
2002,05,03,08,05,9.70
2002,05,03,08,06,3.20
2002,05,03,08,07,3.20
2002,05,03,08,08,7.90
2002,05,03,08,09,4.70
2002,05,03,08,10,4.70
2002,05,03,08,11,3.20
2002,05,03,08,12,3.20
2002,05,03,08,13,3.20
2002,05,03,08,14,3.20
2002,05,03,08,15,4.70
2002,05,03,08,16,4.70
2002,05,03,08,17,4.70
2002,05,03,08,18,11.20
2002,05,03,08,19,7.90
2002,05,03,08,20,13.00
2002,05,03,08,21,11.20
2002,05,03,08,22,7.90
2002,05,03,08,23,4.70
2002,05,03,08,24,7.90
2002,05,03,08,25,4.70
2002,05,03,08,26,3.20
2002,05,03,08,27,7.90
2002,05,03,08,28,4.70
2002,05,03,08,29,4.70
2002,05,03,08,30,4.70
2002,05,03,08,31,7.90
2002,05,03,08,32,7.90
2002,05,03,08,33,4.70
2002,05,03,08,34,1.40
2002,05,03,08,35,4.70
2002,05,03,08,36,7.90
2002,05,03,08,37,9.70
2002,05,03,08,38,7.90
2002,05,03,08,39,7.90
2002,05,03,08,40,11.20
2002,05,03,08,41,11.20
2002,05,03,08,42,7.90
2002,05,03,08,43,7.90
2002,05,03,08,44,7.90
2002,05,03,08,45,3.20
2002,05,03,08,46,3.20
2002,05,03,08,47,3.20
2002,05,03,08,48,7.90
2002,05,03,08,49,3.20
2002,05,03,08,50,4.70
2002,05,03,08,51,11.20
2002,05,03,08,52,11.20
2002,05,03,08,53,7.90
2002,05,03,08,54,7.90
2002,05,03,08,55,4.70
2002,05,03,08,56,9.70
2002,05,03,08,57,9.70
2002,05,03,08,58,0.00
2002,05,03,08,59,0.00
2002,05,03,09,00,3.20
2002,05,03,09,01,3.20
2002,05,03,09,02,3.20
2002,05,03,09,03,9.70
2002,05,03,09,04,7.90
2002,05,03,09,05,7.90
2002,05,03,09,06,1.40
2002,05,03,09,07,4.70
2002,05,03,09,08,9.70
2002,05,03,09,09,7.90
2002,05,03,09,10,7.90
2002,05,03,09,11,9.70
2002,05,03,09,12,13.00
2002,05,03,09,13,19.40
2002,05,03,09,14,13.00
2002,05,03,09,15,17.60
2002,05,03,09,16,11.20
2002,05,03,09,17,11.20
2002,05,03,09,18,4.70
2002,05,03,09,19,4.70
2002,05,03,09,20,4.70
2002,05,03,09,21,11.20
2002,05,03,09,22,11.20
2002,05,03,09,23,13.00
2002,05,03,09,24,11.20
2002,05,03,09,25,9.70
2002,05,03,09,26,20.90
2002,05,03,09,27,11.20
2002,05,03,09,28,11.20
2002,05,03,09,29,9.70
2002,05,03,09,30,13.00
2002,05,03,09,31,16.20
2002,05,03,09,32,11.20
2002,05,03,09,33,13.00
2002,05,03,09,34,9.70
2002,05,03,09,35,9.70
2002,05,03,09,36,16.20
2002,05,03,09,37,16.20
2002,05,03,09,38,9.70
2002,05,03,09,39,16.20
2002,05,03,09,40,13.00
2002,05,03,09,41,17.60
2002,05,03,09,42,19.40
2002,05,03,09,43,7.90
2002,05,03,09,44,9.70
2002,05,03,09,45,16.20
2002,05,03,09,46,16.20
2002,05,03,09,47,9.70
2002,05,03,09,48,16.20
2002,05,03,09,49,16.20
2002,05,03,09,50,16.20
2002,05,03,09,51,13.00
2002,05,03,09,52,16.20
2002,05,03,09,53,11.20
2002,05,03,09,54,19.40
2002,05,03,09,55,16.20
2002,05,03,09,56,16.20
2002,05,03,09,57,16.20
2002,05,03,09,58,11.20
2002,05,03,09,59,9.70
2002,05,03,10,00,11.20
2002,05,03,10,01,16.20
2002,05,03,10,02,13.00
2002,05,03,10,03,11.20
2002,05,03,10,04,17.60
2002,05,03,10,05,16.20
2002,05,03,10,06,22.70
2002,05,03,10,07,19.40
2002,05,03,10,08,17.60
2002,05,03,10,09,17.60
2002,05,03,10,10,17.60
2002,05,03,10,11,20.90
2002,05,03,10,12,22.70
2002,05,03,10,13,16.20
2002,05,03,10,14,19.40
2002,05,03,10,15,9.70
2002,05,03,10,16,13.00
2002,05,03,10,17,16.20
2002,05,03,10,18,13.00
2002,05,03,10,19,11.20
2002,05,03,10,20,9.70
2002,05,03,10,21,13.00
2002,05,03,10,22,13.00
2002,05,03,10,23,16.20
2002,05,03,10,24,11.20
2002,05,03,10,25,13.00
2002,05,03,10,26,17.60
2002,05,03,10,27,11.20
2002,05,03,10,28,13.00
2002,05,03,10,29,9.70
2002,05,03,10,30,19.40
2002,05,03,10,31,7.90
2002,05,03,10,32,16.20
2002,05,03,10,33,9.70
2002,05,03,10,34,11.20
2002,05,03,10,35,13.00
2002,05,03,10,36,16.20
2002,05,03,10,37,19.40
2002,05,03,10,38,17.60
2002,05,03,10,39,17.60
2002,05,03,10,40,19.40
2002,05,03,10,41,17.60
2002,05,03,10,42,19.40
2002,05,03,10,43,28.80
2002,05,03,10,44,20.90
2002,05,03,10,45,17.60
2002,05,03,10,46,22.70
2002,05,03,10,47,16.20
2002,05,03,10,48,19.40
2002,05,03,10,49,16.20
2002,05,03,10,50,22.70
2002,05,03,10,51,19.40
2002,05,03,10,52,17.60
2002,05,03,10,53,13.00
2002,05,03,10,54,17.60
2002,05,03,10,55,13.00
2002,05,03,10,56,17.60
2002,05,03,10,57,20.90
2002,05,03,10,58,22.70
2002,05,03,10,59,22.70
2002,05,03,11,00,9.70
2002,05,03,11,01,16.20
2002,05,03,11,02,27.40
2002,05,03,11,03,20.90
2002,05,03,11,04,19.40
2002,05,03,11,05,13.00
2002,05,03,11,06,13.00
2002,05,03,11,07,22.70
2002,05,03,11,08,25.90
2002,05,03,11,09,16.20
2002,05,03,11,10,9.70
2002,05,03,11,11,7.90
2002,05,03,11,12,25.90
2002,05,03,11,13,19.40
2002,05,03,11,14,16.20
2002,05,03,11,15,19.40
2002,05,03,11,16,20.90
2002,05,03,11,17,22.70
2002,05,03,11,18,17.60
2002,05,03,11,19,27.40
2002,05,03,11,20,27.40
2002,05,03,11,21,16.20
2002,05,03,11,22,20.90
2002,05,03,11,23,20.90
2002,05,03,11,24,9.70
2002,05,03,11,25,7.90
2002,05,03,11,26,16.20
2002,05,03,11,27,19.40
2002,05,03,11,28,17.60
2002,05,03,11,29,30.60
2002,05,03,11,30,25.90
2002,05,03,11,31,17.60
2002,05,03,11,32,11.20
2002,05,03,11,33,9.70
2002,05,03,11,34,13.00
2002,05,03,11,35,4.70
2002,05,03,11,36,16.20
2002,05,03,11,37,7.90
2002,05,03,11,38,11.20
2002,05,03,11,39,25.90
2002,05,03,11,40,19.40
2002,05,03,11,41,19.40
2002,05,03,11,42,11.20
2002,05,03,11,43,17.60
2002,05,03,11,44,22.70
2002,05,03,11,45,22.70
2002,05,03,11,46,20.90
2002,05,03,11,47,19.40
2002,05,03,11,48,19.40
2002,05,03,11,49,25.90
2002,05,03,11,50,20.90
2002,05,03,11,51,25.90
2002,05,03,11,52,22.70
2002,05,03,11,53,17.60
2002,05,03,11,54,20.90
2002,05,03,11,55,20.90
2002,05,03,11,56,17.60
2002,05,03,11,57,20.90
2002,05,03,11,58,17.60
2002,05,03,11,59,20.90
2002,05,03,12,00,20.90
2002,05,03,12,01,22.70
2002,05,03,12,02,22.70
2002,05,03,12,03,20.90
2002,05,03,12,04,20.90
2002,05,03,12,05,19.40
2002,05,03,12,06,22.70
2002,05,03,12,07,17.60
2002,05,03,12,08,16.20
2002,05,03,12,09,22.70
2002,05,03,12,10,22.70
2002,05,03,12,11,17.60
2002,05,03,12,12,17.60
2002,05,03,12,13,20.90
2002,05,03,12,14,13.00
2002,05,03,12,15,22.70
2002,05,03,12,16,20.90
2002,05,03,12,17,20.90
2002,05,03,12,18,20.90
2002,05,03,12,19,17.60
2002,05,03,12,20,20.90
2002,05,03,12,21,19.40
2002,05,03,12,22,20.90
2002,05,03,12,23,20.90
2002,05,03,12,24,25.90
2002,05,03,12,25,27.40
2002,05,03,12,26,16.20
2002,05,03,12,27,16.20
2002,05,03,12,28,19.40
2002,05,03,12,29,17.60
2002,05,03,12,30,19.40
2002,05,03,12,31,22.70
2002,05,03,12,32,20.90
2002,05,03,12,33,19.40
2002,05,03,12,34,22.70
2002,05,03,12,35,17.60
2002,05,03,12,36,19.40
2002,05,03,12,37,16.20
2002,05,03,12,38,17.60
2002,05,03,12,39,16.20
2002,05,03,12,40,20.90
2002,05,03,12,41,25.90
2002,05,03,12,42,27.40
2002,05,03,12,43,22.70
2002,05,03,12,44,22.70
2002,05,03,12,45,22.70
2002,05,03,12,46,27.40
2002,05,03,12,47,19.40
2002,05,03,12,48,20.90
2002,05,03,12,49,19.40
2002,05,03,12,50,17.60
2002,05,03,12,51,20.90
2002,05,03,12,52,22.70
2002,05,03,12,53,20.90
2002,05,03,12,54,20.90
2002,05,03,12,55,17.60
2002,05,03,12,56,28.80
2002,05,03,12,57,30.60
2002,05,03,12,58,30.60
2002,05,03,12,59,19.40
2002,05,03,13,00,27.40
2002,05,03,13,01,20.90
2002,05,03,13,02,17.60
2002,05,03,13,03,20.90
2002,05,03,13,04,20.90
2002,05,03,13,05,17.60
2002,05,03,13,06,20.90
2002,05,03,13,07,17.60
2002,05,03,13,08,20.90
2002,05,03,13,09,19.40
2002,05,03,13,10,27.40
2002,05,03,13,11,22.70
2002,05,03,13,12,20.90
2002,05,03,13,13,28.80
2002,05,03,13,14,19.40
